Year,Month,Day,Hour,Minute,Value (Times are PST for temperature in C)
2009,07,13,04,59,12.10
2009,07,13,05,00,12.10
2009,07,13,05,01,12.20
2009,07,13,05,02,12.20
2009,07,13,05,03,12.20
2009,07,13,05,04,12.20
2009,07,13,05,05,12.20
2009,07,13,05,06,12.20
2009,07,13,05,07,12.20
2009,07,13,05,08,12.20
2009,07,13,05,09,12.30
2009,07,13,05,10,12.60
2009,07,13,05,11,12.60
2009,07,13,05,12,12.70
2009,07,13,05,13,12.80
2009,07,13,05,14,12.80
2009,07,13,05,15,12.80
2009,07,13,05,16,12.80
2009,07,13,05,17,12.80
2009,07,13,05,18,12.90
2009,07,13,05,19,12.90
2009,07,13,05,20,12.90
2009,07,13,05,21,12.90
2009,07,13,05,22,12.90
2009,07,13,05,23,12.90
2009,07,13,05,24,12.90
2009,07,13,05,25,12.90
2009,07,13,05,26,12.90
2009,07,13,05,27,12.90
2009,07,13,05,28,12.90
2009,07,13,05,29,13.00
2009,07,13,05,30,13.10
2009,07,13,05,31,13.10
2009,07,13,05,32,13.10
2009,07,13,05,33,13.00
2009,07,13,05,34,13.10
2009,07,13,05,35,13.10
2009,07,13,05,36,13.10
2009,07,13,05,37,13.10
2009,07,13,05,38,13.10
2009,07,13,05,39,13.20
2009,07,13,05,40,13.20
2009,07,13,05,41,13.20
2009,07,13,05,42,13.20
2009,07,13,05,43,13.20
2009,07,13,05,44,13.30
2009,07,13,05,45,13.40
2009,07,13,05,46,13.40
2009,07,13,05,47,13.50
2009,07,13,05,48,13.50
2009,07,13,05,49,13.50
2009,07,13,05,50,13.50
2009,07,13,05,51,13.40
2009,07,13,05,52,13.50
2009,07,13,05,53,13.50
2009,07,13,05,54,13.40
2009,07,13,05,55,13.40
2009,07,13,05,56,13.40
2009,07,13,05,57,13.40
2009,07,13,05,58,13.40
2009,07,13,05,59,13.40
2009,07,13,06,00,13.50
2009,07,13,06,01,13.50
2009,07,13,06,02,13.50
2009,07,13,06,03,13.50
2009,07,13,06,04,13.50
2009,07,13,06,05,13.50
2009,07,13,06,06,13.50
2009,07,13,06,07,13.50
2009,07,13,06,08,13.50
2009,07,13,06,09,13.50
2009,07,13,06,10,13.50
2009,07,13,06,11,13.50
2009,07,13,06,12,13.50
2009,07,13,06,13,13.50
2009,07,13,06,14,13.40
2009,07,13,06,15,13.40
2009,07,13,06,16,13.40
2009,07,13,06,17,13.40
2009,07,13,06,18,13.40
2009,07,13,06,19,13.40
2009,07,13,06,20,13.40
2009,07,13,06,21,13.40
2009,07,13,06,22,13.40
2009,07,13,06,23,13.30
2009,07,13,06,24,13.30
2009,07,13,06,25,13.30
2009,07,13,06,26,13.30
2009,07,13,06,27,13.30
2009,07,13,06,28,13.30
2009,07,13,06,29,13.30
2009,07,13,06,30,13.30
2009,07,13,06,31,13.30
2009,07,13,06,32,13.30
2009,07,13,06,33,13.30
2009,07,13,06,34,13.30
2009,07,13,06,35,13.30
2009,07,13,06,36,13.30
2009,07,13,06,37,13.30
2009,07,13,06,38,13.30
2009,07,13,06,39,13.30
2009,07,13,06,40,13.30
2009,07,13,06,41,13.30
2009,07,13,06,42,13.30
2009,07,13,06,43,13.30
2009,07,13,06,44,13.40
2009,07,13,06,45,13.40
2009,07,13,06,46,13.40
2009,07,13,06,47,13.40
2009,07,13,06,48,13.40
2009,07,13,06,49,13.40
2009,07,13,06,50,13.40
2009,07,13,06,51,13.40
2009,07,13,06,52,13.40
2009,07,13,06,53,13.40
2009,07,13,06,54,13.50
2009,07,13,06,55,13.50
2009,07,13,06,56,13.60
2009,07,13,06,57,13.60
2009,07,13,06,58,13.60
2009,07,13,06,59,13.60
2009,07,13,07,00,13.60
2009,07,13,07,01,13.60
2009,07,13,07,02,13.70
2009,07,13,07,03,13.70
2009,07,13,07,04,13.70
2009,07,13,07,05,13.70
2009,07,13,07,06,13.70
2009,07,13,07,07,13.70
2009,07,13,07,08,13.70
2009,07,13,07,09,13.70
2009,07,13,07,10,13.70
2009,07,13,07,11,13.80
2009,07,13,07,12,13.80
2009,07,13,07,13,13.80
2009,07,13,07,14,13.80
2009,07,13,07,15,13.80
2009,07,13,07,16,13.70
2009,07,13,07,17,13.70
2009,07,13,07,18,13.70
2009,07,13,07,19,13.70
2009,07,13,07,20,13.80
2009,07,13,07,21,13.80
2009,07,13,07,22,13.80
2009,07,13,07,23,13.80
2009,07,13,07,24,13.80
2009,07,13,07,25,13.80
2009,07,13,07,26,13.80
2009,07,13,07,27,13.80
2009,07,13,07,28,13.80
2009,07,13,07,29,13.80
2009,07,13,07,30,13.80
2009,07,13,07,31,13.80
2009,07,13,07,32,13.80
2009,07,13,07,33,13.80
2009,07,13,07,34,13.80
2009,07,13,07,35,13.80
2009,07,13,07,36,13.80
2009,07,13,07,37,13.80
2009,07,13,07,38,13.80
2009,07,13,07,39,13.80
2009,07,13,07,40,13.80
2009,07,13,07,41,13.80
2009,07,13,07,42,13.80
2009,07,13,07,43,13.80
2009,07,13,07,44,13.80
2009,07,13,07,45,13.80
2009,07,13,07,46,13.80
2009,07,13,07,47,13.80
2009,07,13,07,48,13.80
2009,07,13,07,49,13.80
2009,07,13,07,50,13.80
2009,07,13,07,51,13.90
2009,07,13,07,52,13.90
2009,07,13,07,53,13.90
2009,07,13,07,54,13.90
2009,07,13,07,55,13.90
2009,07,13,07,56,13.90
2009,07,13,07,57,13.90
2009,07,13,07,58,13.90
2009,07,13,07,59,13.90
2009,07,13,08,00,13.90
2009,07,13,08,01,13.90
2009,07,13,08,02,13.90
2009,07,13,08,03,13.90
2009,07,13,08,04,13.90
2009,07,13,08,05,13.90
2009,07,13,08,06,13.90
2009,07,13,08,07,13.90
2009,07,13,08,08,13.90
2009,07,13,08,09,13.90
2009,07,13,08,10,13.90
2009,07,13,08,11,13.80
2009,07,13,08,12,13.80
2009,07,13,08,13,13.80
2009,07,13,08,14,13.80
2009,07,13,08,15,13.80
2009,07,13,08,16,13.80
2009,07,13,08,17,13.80
2009,07,13,08,18,13.80
2009,07,13,08,19,13.80
2009,07,13,08,20,13.80
2009,07,13,08,21,13.80
2009,07,13,08,22,13.80
2009,07,13,08,23,13.80
2009,07,13,08,24,13.80
2009,07,13,08,25,13.80
2009,07,13,08,26,13.80
2009,07,13,08,27,13.80
2009,07,13,08,28,13.90
2009,07,13,08,29,13.90
2009,07,13,08,30,13.90
2009,07,13,08,31,13.90
2009,07,13,08,32,13.90
2009,07,13,08,33,13.90
2009,07,13,08,34,14.00
2009,07,13,08,35,14.00
2009,07,13,08,36,14.00
2009,07,13,08,37,14.10
2009,07,13,08,38,14.10
2009,07,13,08,39,14.10
2009,07,13,08,40,14.10
2009,07,13,08,41,14.10
2009,07,13,08,42,14.10
2009,07,13,08,43,14.10
2009,07,13,08,44,14.10
2009,07,13,08,45,14.10
2009,07,13,08,46,14.10
2009,07,13,08,47,14.10
2009,07,13,08,48,14.10
2009,07,13,08,49,14.10
2009,07,13,08,50,14.10
2009,07,13,08,51,14.10
2009,07,13,08,52,14.10
2009,07,13,08,53,14.10
2009,07,13,08,54,14.10
2009,07,13,08,55,14.10
2009,07,13,08,56,14.10
2009,07,13,08,57,14.10
2009,07,13,08,58,14.10
2009,07,13,08,59,14.00
2009,07,13,09,00,14.00
2009,07,13,09,01,14.00
2009,07,13,09,02,14.00
2009,07,13,09,03,14.00
2009,07,13,09,04,14.00
2009,07,13,09,05,14.00
2009,07,13,09,06,14.00
2009,07,13,09,07,14.00
2009,07,13,09,08,14.00
2009,07,13,09,09,14.00
2009,07,13,09,10,14.00
2009,07,13,09,11,14.00
2009,07,13,09,12,14.00
2009,07,13,09,13,14.00
2009,07,13,11,28,15.60
2009,07,13,11,29,15.60
2009,07,13,11,30,15.60
2009,07,13,11,31,15.60
2009,07,13,11,32,15.50
2009,07,13,11,33,15.50
2009,07,13,11,34,15.40
2009,07,13,11,35,15.30
2009,07,13,11,36,15.30
2009,07,13,11,37,15.30
2009,07,13,11,38,15.30
2009,07,13,11,39,15.40
2009,07,13,11,40,15.30
2009,07,13,11,41,15.30
2009,07,13,11,42,15.30
2009,07,13,11,43,15.30
2009,07,13,11,44,15.40
2009,07,13,11,45,15.50
2009,07,13,11,46,15.60
2009,07,13,11,47,15.60
2009,07,13,11,48,15.60
2009,07,13,11,49,15.60
2009,07,13,11,50,15.70
2009,07,13,11,51,15.70
2009,07,13,11,52,15.70
2009,07,13,11,53,15.80
2009,07,13,11,54,15.80
2009,07,13,11,55,15.70
2009,07,13,11,56,15.80
2009,07,13,11,57,15.80
2009,07,13,11,58,15.80
2009,07,13,11,59,15.90
2009,07,13,12,00,15.90
2009,07,13,12,01,16.00
2009,07,13,12,02,16.10
2009,07,13,12,03,16.20
2009,07,13,12,04,16.20
2009,07,13,12,05,16.30
2009,07,13,12,06,16.40
2009,07,13,12,07,16.50
2009,07,13,12,08,16.60
2009,07,13,12,09,16.60
2009,07,13,12,10,16.50
2009,07,13,12,11,16.30
2009,07,13,12,12,16.20
2009,07,13,12,13,16.20
2009,07,13,12,14,16.20
2009,07,13,12,15,16.20
2009,07,13,12,16,16.20
2009,07,13,12,17,16.20
2009,07,13,12,18,16.10
2009,07,13,12,19,16.10
2009,07,13,12,20,16.20
2009,07,13,12,21,16.30
2009,07,13,12,22,16.50
2009,07,13,12,23,16.60
2009,07,13,12,24,16.70
2009,07,13,12,25,16.70
2009,07,13,12,26,16.80
2009,07,13,12,27,16.90
2009,07,13,12,28,17.00
2009,07,13,12,29,17.20
2009,07,13,12,30,17.30
2009,07,13,12,31,17.20
2009,07,13,12,32,17.10
2009,07,13,12,33,16.90
2009,07,13,12,34,16.80
2009,07,13,12,35,16.80
2009,07,13,12,36,16.80
2009,07,13,12,37,16.80
2009,07,13,12,38,16.80
2009,07,13,12,39,16.80
2009,07,13,12,40,16.70
2009,07,13,12,41,16.80
2009,07,13,12,42,16.80
2009,07,13,12,43,16.80
2009,07,13,12,44,16.80
2009,07,13,12,45,17.00
2009,07,13,12,46,17.10
2009,07,13,12,47,17.20
2009,07,13,12,48,17.20
2009,07,13,12,49,17.20
2009,07,13,12,50,17.40
2009,07,13,12,51,17.50
2009,07,13,12,52,17.50
2009,07,13,12,53,17.40
2009,07,13,12,54,17.30
2009,07,13,12,55,17.30
2009,07,13,12,56,17.40
2009,07,13,12,57,17.40
2009,07,13,12,58,17.50
2009,07,13,12,59,17.60
2009,07,13,13,00,17.50
2009,07,13,13,01,17.50
2009,07,13,13,02,17.40
2009,07,13,13,03,17.40
2009,07,13,13,04,17.30
2009,07,13,13,05,17.40
2009,07,13,13,06,17.40
2009,07,13,13,07,17.40
2009,07,13,13,08,17.30
2009,07,13,13,09,17.40
2009,07,13,13,10,17.40
2009,07,13,13,11,17.50
2009,07,13,13,12,17.50
2009,07,13,13,13,17.50
2009,07,13,13,14,17.50
2009,07,13,13,15,17.30
2009,07,13,13,16,17.30
2009,07,13,13,17,17.30
2009,07,13,13,18,17.30
2009,07,13,13,19,17.50
2009,07,13,13,20,17.60
2009,07,13,13,21,17.70
2009,07,13,13,22,17.70
2009,07,13,13,23,17.70
2009,07,13,13,24,17.70
2009,07,13,13,25,17.70
2009,07,13,13,26,17.70
2009,07,13,13,27,17.70
2009,07,13,13,28,17.80
2009,07,13,13,29,17.80
2009,07,13,13,30,17.80
2009,07,13,13,31,17.70
2009,07,13,13,32,17.60
2009,07,13,13,33,17.60
2009,07,13,13,34,17.50
2009,07,13,13,35,17.40
2009,07,13,13,36,17.40
2009,07,13,13,37,17.30
2009,07,13,13,38,17.10
2009,07,13,13,39,17.10
2009,07,13,13,40,17.10
2009,07,13,13,41,17.20
2009,07,13,13,42,17.20
2009,07,13,13,43,17.30
2009,07,13,13,44,17.50
2009,07,13,13,45,17.60
2009,07,13,13,46,17.60
2009,07,13,13,47,17.60
2009,07,13,13,48,17.60
2009,07,13,13,49,17.60
2009,07,13,13,50,17.70
2009,07,13,13,51,17.70
2009,07,13,13,52,17.70
2009,07,13,13,53,17.60
2009,07,13,13,54,17.60
2009,07,13,13,55,17.60
2009,07,13,13,56,17.50
2009,07,13,13,57,17.50
2009,07,13,13,58,17.50
2009,07,13,13,59,17.60
2009,07,13,14,00,17.60
2009,07,13,14,01,17.60
2009,07,13,14,02,17.50
2009,07,13,14,03,17.50
2009,07,13,14,04,17.50
2009,07,13,14,05,17.40
2009,07,13,14,06,17.40
2009,07,13,14,07,17.40
2009,07,13,14,08,17.30
2009,07,13,14,09,17.30
2009,07,13,14,10,17.30
2009,07,13,14,11,17.30
2009,07,13,14,12,17.30
2009,07,13,14,13,17.40
2009,07,13,14,14,17.40
2009,07,13,14,15,17.50
2009,07,13,14,16,17.50
2009,07,13,14,17,17.50
2009,07,13,14,18,17.50
2009,07,13,14,19,17.50
2009,07,13,14,20,17.40
2009,07,13,14,21,17.40
2009,07,13,14,22,17.30
2009,07,13,14,23,17.20
2009,07,13,14,24,17.20
2009,07,13,14,25,17.10
2009,07,13,14,26,17.10
2009,07,13,14,27,17.10
2009,07,13,14,28,17.10
2009,07,13,14,29,17.10
2009,07,13,14,30,17.00
2009,07,13,14,31,17.00
2009,07,13,14,32,17.00
2009,07,13,14,33,16.90
2009,07,13,14,34,16.90
2009,07,13,14,35,16.90
2009,07,13,14,36,16.90
2009,07,13,14,37,16.80
2009,07,13,14,38,16.80
2009,07,13,14,39,16.80
2009,07,13,14,40,16.80
2009,07,13,14,41,16.80
2009,07,13,14,42,16.80
2009,07,13,14,43,16.80
2009,07,13,14,44,16.80
2009,07,13,14,45,16.80
2009,07,13,14,46,16.90
2009,07,13,14,47,16.90
2009,07,13,14,48,16.90
2009,07,13,14,49,16.90
2009,07,13,14,50,17.00
2009,07,13,14,51,17.00
2009,07,13,14,52,16.90
2009,07,13,14,53,16.90
2009,07,13,14,54,16.90
2009,07,13,14,55,16.80
2009,07,13,14,56,16.80
2009,07,13,14,57,16.70
2009,07,13,14,58,16.50
2009,07,13,14,59,16.40
2009,07,13,15,00,16.30
2009,07,13,15,01,16.30
2009,07,13,15,02,16.30
2009,07,13,15,03,16.40
2009,07,13,15,04,16.50
2009,07,13,15,05,16.60
2009,07,13,15,06,16.60
2009,07,13,15,07,16.70
2009,07,13,15,08,16.80
2009,07,13,15,09,16.70
2009,07,13,15,10,16.60
2009,07,13,15,11,16.50
2009,07,13,15,12,16.40
2009,07,13,15,13,16.30
2009,07,13,15,14,16.30
2009,07,13,15,15,16.30
2009,07,13,15,16,16.30
2009,07,13,15,17,16.30
2009,07,13,15,18,16.30
2009,07,13,15,19,16.30
2009,07,13,15,20,16.20
2009,07,13,15,21,16.20
2009,07,13,15,22,16.20
2009,07,13,15,23,16.20
2009,07,13,15,24,16.20
2009,07,13,15,25,16.20
2009,07,13,15,26,16.20
2009,07,13,15,27,16.20
2009,07,13,15,28,16.10
2009,07,13,15,29,16.00
2009,07,13,15,30,16.00
2009,07,13,15,31,16.10
2009,07,13,15,32,16.20
2009,07,13,15,33,16.30
2009,07,13,15,34,16.40
2009,07,13,15,35,16.40
2009,07,13,15,36,16.50
2009,07,13,15,37,16.50
2009,07,13,15,38,16.50
2009,07,13,15,39,16.50
2009,07,13,15,40,16.40
2009,07,13,15,41,16.40
2009,07,13,15,42,16.40
2009,07,13,15,43,16.40
2009,07,13,15,44,16.40
2009,07,13,15,45,16.40
2009,07,13,15,46,16.40
2009,07,13,15,47,16.20
2009,07,13,15,48,16.20
2009,07,13,15,49,16.20
2009,07,13,15,50,16.20
2009,07,13,15,51,16.20
2009,07,13,15,52,16.20
2009,07,13,15,53,16.20
2009,07,13,15,54,16.20
2009,07,13,15,55,16.20
2009,07,13,15,56,16.20
2009,07,13,15,57,16.30
2009,07,13,15,58,16.20
2009,07,13,15,59,16.10
2009,07,13,16,00,16.00
2009,07,13,16,01,15.80
2009,07,13,16,02,15.70
2009,07,13,16,03,15.70
2009,07,13,16,04,15.60
2009,07,13,16,05,15.60
2009,07,13,16,06,15.70
2009,07,13,16,07,15.70
2009,07,13,16,08,15.70
2009,07,13,16,09,15.80
2009,07,13,16,10,15.80
2009,07,13,16,11,15.80
2009,07,13,16,12,15.80
2009,07,13,16,13,15.70
2009,07,13,16,14,15.70
2009,07,13,16,15,15.70
2009,07,13,16,16,15.70
2009,07,13,16,17,15.60
2009,07,13,16,18,15.70
2009,07,13,16,19,15.80
2009,07,13,16,20,15.90
2009,07,13,16,21,16.00
2009,07,13,16,22,16.10
2009,07,13,16,23,16.00
2009,07,13,16,24,16.00
2009,07,13,16,25,15.90
2009,07,13,16,26,15.90
2009,07,13,16,27,16.00
2009,07,13,16,28,16.00
2009,07,13,16,29,16.00
2009,07,13,16,30,15.90
2009,07,13,16,31,15.80
2009,07,13,16,32,15.80
2009,07,13,16,33,15.80
2009,07,13,16,34,15.90
2009,07,13,16,35,15.90
2009,07,13,16,36,15.90
2009,07,13,16,37,15.90
2009,07,13,16,38,16.10
2009,07,13,16,39,16.20
2009,07,13,16,40,16.30
2009,07,13,16,41,16.40
2009,07,13,16,42,16.50
2009,07,13,16,43,16.60
2009,07,13,16,44,16.50
2009,07,13,16,45,16.40
2009,07,13,16,46,16.30
2009,07,13,16,47,16.30
2009,07,13,16,48,16.30
2009,07,13,16,49,16.20
2009,07,13,16,50,16.20
2009,07,13,16,51,16.30
2009,07,13,16,52,16.30
2009,07,13,16,53,16.40
2009,07,13,16,54,16.50
2009,07,13,16,55,16.50
2009,07,13,16,56,16.60
2009,07,13,16,57,16.60
2009,07,13,16,58,16.50
2009,07,13,16,59,16.50
2009,07,13,17,00,16.60
2009,07,13,17,01,16.60
2009,07,13,17,02,16.70
2009,07,13,17,03,16.60
2009,07,13,17,04,16.60
2009,07,13,17,05,16.60
2009,07,13,17,06,16.60
2009,07,13,17,07,16.60
2009,07,13,17,08,16.60
2009,07,13,17,09,16.60
2009,07,13,17,10,16.40
2009,07,13,17,11,16.30
2009,07,13,17,12,16.10
2009,07,13,17,13,16.00
2009,07,13,17,14,15.90
2009,07,13,17,15,15.80
2009,07,13,17,16,15.80
2009,07,13,17,17,15.80
2009,07,13,17,18,15.80
2009,07,13,17,19,15.80
2009,07,13,17,20,15.80
2009,07,13,17,21,15.80
2009,07,13,17,22,15.70
2009,07,13,17,23,15.70
2009,07,13,17,24,15.70
2009,07,13,17,25,15.70
2009,07,13,17,26,15.70
2009,07,13,17,27,15.70
2009,07,13,17,28,15.80
2009,07,13,17,29,15.80
2009,07,13,17,30,15.80
2009,07,13,17,31,15.80
2009,07,13,17,32,15.80
2009,07,13,17,33,15.90
2009,07,13,17,34,16.00
2009,07,13,17,35,16.00
2009,07,13,17,36,16.00
2009,07,13,17,37,16.00
2009,07,13,17,38,16.10
2009,07,13,17,39,16.00
2009,07,13,17,40,15.90
2009,07,13,17,41,15.90
2009,07,13,17,42,15.90
2009,07,13,17,43,15.90
2009,07,13,17,44,15.80
2009,07,13,17,45,15.70
2009,07,13,17,46,15.70
2009,07,13,17,47,15.70
2009,07,13,17,48,15.70
2009,07,13,17,49,15.70
2009,07,13,17,50,15.60
2009,07,13,17,51,15.60
2009,07,13,17,52,15.60
2009,07,13,17,53,15.60
2009,07,13,17,54,15.60
2009,07,13,17,55,15.60
2009,07,13,17,56,15.60
2009,07,13,17,57,15.50
2009,07,13,17,58,15.40
2009,07,13,17,59,15.40
2009,07,13,18,00,15.30
2009,07,13,18,01,15.30
2009,07,13,18,02,15.30
2009,07,13,18,03,15.30
2009,07,13,18,04,15.30
2009,07,13,18,05,15.30
2009,07,13,18,06,15.30
2009,07,13,18,07,15.40
2009,07,13,18,08,15.50
2009,07,13,18,09,15.50
2009,07,13,18,10,15.60
2009,07,13,18,11,15.60
2009,07,13,18,12,15.60
2009,07,13,18,13,15.60
2009,07,13,18,14,15.60
2009,07,13,18,15,15.60
2009,07,13,18,16,15.60
2009,07,13,18,17,15.70
2009,07,13,18,18,15.80
2009,07,13,18,19,15.80
2009,07,13,18,20,15.80
2009,07,13,18,21,15.90
2009,07,13,18,22,16.00
2009,07,13,18,23,16.00
2009,07,13,18,24,15.90
2009,07,13,18,25,15.80
2009,07,13,18,26,15.70
2009,07,13,18,27,15.70
2009,07,13,18,28,15.60
2009,07,13,18,29,15.60
2009,07,13,18,30,15.60
2009,07,13,18,31,15.60
2009,07,13,18,32,15.60
2009,07,13,18,33,15.50
2009,07,13,18,34,15.50
2009,07,13,18,35,15.40
2009,07,13,18,36,15.40
2009,07,13,18,37,15.40
2009,07,13,18,38,15.40
2009,07,13,18,39,15.30
2009,07,13,18,40,15.30
2009,07,13,18,41,15.30
2009,07,13,18,42,15.30
2009,07,13,18,43,15.30
2009,07,13,18,44,15.40
2009,07,13,18,45,15.40
2009,07,13,18,46,15.40
2009,07,13,18,47,15.40
2009,07,13,18,48,15.40
2009,07,13,18,49,15.30
2009,07,13,18,50,15.30
2009,07,13,18,51,15.30
2009,07,13,18,52,15.40
2009,07,13,18,53,15.40
2009,07,13,18,54,15.40
2009,07,13,18,55,15.50
2009,07,13,18,56,15.50
2009,07,13,18,57,15.60
2009,07,13,18,58,15.60
2009,07,13,18,59,15.70
2009,07,13,19,00,15.70
2009,07,13,19,01,15.80
2009,07,13,19,02,15.80
2009,07,13,19,03,15.80
2009,07,13,19,04,15.80
2009,07,13,19,05,15.80
2009,07,13,19,06,15.80
2009,07,13,19,07,15.80
2009,07,13,19,08,15.80
2009,07,13,19,09,15.80
2009,07,13,19,10,15.70
2009,07,13,19,11,15.70
2009,07,13,19,12,15.70
2009,07,13,19,13,15.70
2009,07,13,19,14,15.70
2009,07,13,19,15,15.70
2009,07,13,19,16,15.70
2009,07,13,19,17,15.60
2009,07,13,19,18,15.60
2009,07,13,19,19,15.50
2009,07,13,19,20,15.40
2009,07,13,19,21,15.30
2009,07,13,19,22,15.30
2009,07,13,19,23,15.20
2009,07,13,19,24,15.20
2009,07,13,19,25,15.20
2009,07,13,19,26,15.30
2009,07,13,19,27,15.30
2009,07,13,19,28,15.30
2009,07,13,19,29,15.30
2009,07,13,19,30,15.40
2009,07,13,19,31,15.40
2009,07,13,19,32,15.40
2009,07,13,19,33,15.40
2009,07,13,19,34,15.40
2009,07,13,19,35,15.40
2009,07,13,19,36,15.40
2009,07,13,19,37,15.40
2009,07,13,19,38,15.40
2009,07,13,19,39,15.40
2009,07,13,19,40,15.40
2009,07,13,19,41,15.40
2009,07,13,19,42,15.40
2009,07,13,19,43,15.40
2009,07,13,19,44,15.40
2009,07,13,19,45,15.40
2009,07,13,19,46,15.40
2009,07,13,19,47,15.40
2009,07,13,19,48,15.40
2009,07,13,19,49,15.40
2009,07,13,19,50,15.40
2009,07,13,19,51,15.40
2009,07,13,19,52,15.40
